AirNav   Everest Fuels
 
 1434 users online  

WI97 Mathaire Field Airport
Marshall, Wisconsin, USA

GOING TO MARSHALL?


FAA INFORMATION EFFECTIVE 18 JUNE 2020

Location

FAA Identifier: WI97
Lat/Long: 43-15-27.9720N 089-03-53.3960W
43-15.466200N 089-03.889933W
43.2577700,-89.0648322
(estimated)
Elevation: 960 ft. / 292.6 m (surveyed)
Variation: 00W (1985)
From city: 5 miles N of MARSHALL, WI
Time zone: UTC -5 (UTC -6 during Standard Time)
Zip code: 53925

Airport Operations

Airport use: Private use. Permission required prior to landing
Activation date: 11/1968
Control tower: no
ARTCC: CHICAGO CENTER
FSS: GREEN BAY FLIGHT SERVICE STATION
Attendance: UNATNDD
Wind indicator: yes
Segmented circle: no

Airport Communications

WX ASOS at MSN (14 nm SW): PHONE 608-249-0615
WX AWOS-3 at RYV (16 nm E): 119.975 (920-261-0734)
WX AWOS-3 at UNU (19 nm NE): 120.825 (920-386-5682)

Nearby radio navigation aids

VOR radial/distance  VOR name  Freq  Var
MSNr058/13.8MADISON VORTAC108.6003E
DLLr117/35.2DELLS VORTAC117.0003E
BAEr282/35.2BADGER VOR/DME116.4002E

 
NDB name  Hdg/Dist  Freq  Var  ID
ROCK RIVER290/15.737101WRYV .-. -.-- ...-
JUNEAU238/18.934401WUNU ..- -. ..-
LAKE LAWN330/39.440402WLVV .-.. ...- ...-

Airport Services

Airframe service: NONE
Powerplant service: NONE

Runway Information

Runway 18/36

Dimensions: 2600 x 75 ft. / 792 x 23 m
Surface: turf
RUNWAY 18  RUNWAY 36
Traffic pattern: leftleft
Obstructions: treesnone

Airport Ownership and Management from official FAA records

Ownership: Privately-owned
Owner: MATHAIRE FIELD LLC
4349 COUNTY HWY DM
DEFOREST, WI 53532
Phone 608-846-5027
Manager: ED MCGAVOCK
4349 COUNTY HWY DM
DEFOREST, WI 53532
Phone 608-846-5027
EMAIL ADDRESS: EDMCGAVOCK@GMAIL.COM

Airport Operational Statistics

Aircraft based on the field: 25
Single engine airplanes: 18
Ultralights: 7
    

Additional Remarks

FOR CD CTC CHICAGO ARTCC AT 630-906-8921.

Instrument Procedures

There are no published instrument procedures at WI97.

Some nearby airports with instrument procedures:

87Y - Blackhawk Airfield (11 nm SW)
KMSN - Dane County Regional Airport-Truax Field (14 nm SW)
KRYV - Watertown Municipal Airport (16 nm E)
KUNU - Dodge County Airport (19 nm NE)
61C - Fort Atkinson Municipal Airport (21 nm SE)
 
Loc | Ops | Rwys | IFR | FBO | Links
Com | Nav | Svcs | Stats | Notes
Area around WI97 (Mathaire Field Airport)
 
Road maps at: MapQuest Bing Google
 
Aerial photo
No photo
 
Sectional chart

 
Airport distance calculator
Flying to Mathaire Field Airport? Find the distance to fly.

From to WI97

Sunrise and sunset
Times for 07-Jul-2020
 Local
(UTC-5)
 Zulu
(UTC)
Morning civil twilight04:5009:50
Sunrise05:2510:25
Sunset20:3701:37
Evening civil twilight21:1202:12

Current date and time
Zulu (UTC)  07-Jul-2020 16:34:15
Local (UTC-5)  07-Jul-2020 11:34:15
 
METAR
KMSN 
15nm SW 
071553Z 27007KT 220V310 10SM SCT035 SCT250 30/21 A2998 RMK AO2 SLP143 T03000211
KRYV 
16nm E 
071615Z AUTO 24005KT 10SM CLR 30/22 A2998 RMK AO2 T03010222
KUNU 
19nm NE 
071615Z AUTO 22004KT 10SM CLR 29/22 A2999 RMK AO2 T02870218
KC29 
22nm SW 
071615Z AUTO 26005KT 10SM SCT033 31/21 A2999 RMK AO1 T03110210
TAF
KMSN 
15nm SW 
071537Z 0716/0812 31006KT P6SM FEW040 FEW250 FM071900 28003KT P6SM VCTS SCT050CB SCT200 FM080000 00000KT P6SM FEW050 SCT250 FM080200 00000KT P6SM SCT250
NOTAMs
Click for the latest NOTAMs
NOTAMs are issued by the DoD/FAA and will open in a separate window not controlled by AirNav.

 

 
 

Would you like to see your business listed on this page?

 If your business provides an interesting product or service to pilots, flight crews, aircraft, or users of the Mathaire Field Airport, you should consider listing it here.  To start the listing process, click on the button below
 
Add a business
 

Other Pages about Mathaire Field Airport

Update a link
 
Copyright © AirNav, LLC. All rights reserved. Privacy Policy  Contact